Total_Precipitation_Accumulation
0.14 0.14 0.13 0.12 0.09 0.06 0.06 0.04 0.03 0.02 0.02 0.01 0.01 0.01 0.00 0.00 0.00 0.00 0.00 0.00 0.00 0.00 0.00 0.00 0.00 0.00 0.01 0.03 0.05 0.02 0.00 0.08 0.30 0.13 0.20 0.26 0.19 0.31 0.17 0.05 0.13 0.43 1.32 0.91 0.52
0.14 0.14 0.13 0.13 0.10 0.10 0.08 0.06 0.04 0.03 0.03 0.02 0.02 0.01 0.01 0.01 0.00 0.00 0.00 0.00 0.00 0.00 0.00 0.00 0.00 0.00 0.00 0.00 0.02 0.13 0.02 0.11 0.21 0.09 0.25 0.33 0.04 0.18 0.08 0.05 0.22 0.69 1.13 0.51 0.34
0.13 0.13 0.12 0.10 0.08 0.10 0.10 0.09 0.06 0.06 0.05 0.04 0.04 0.03 0.02 0.01 0.00 0.00 0.00 0.00 0.00 0.00 0.00 0.00 0.00 0.00 0.00 0.00 0.04 0.10 0.03 0.02 0.01 0.06 0.10 0.29 0.01 0.05 0.04 0.07 0.42 0.49 0.62 0.41 0.44
0.14 0.11 0.11 0.09 0.09 0.10 0.08 0.09 0.09 0.08 0.08 0.08 0.09 0.09 0.05 0.01 0.00 0.00 0.00 0.00 0.00 0.00 0.00 0.00 0.00 0.00 0.00 0.01 0.00 0.00 0.00 0.00 0.00 0.00 0.00 0.00 0.07 0.15 0.09 0.10 0.22 0.46 0.49 0.35 0.44
0.16 0.13 0.12 0.12 0.10 0.09 0.08 0.09 0.09 0.09 0.11 0.14 0.20 0.22 0.11 0.06 0.01 0.00 0.00 0.00 0.00 0.00 0.00 0.00 0.00 0.00 0.01 0.00 0.00 0.00 0.00 0.00 0.00 0.01 0.00 0.01 0.09 0.11 0.01 0.06 0.23 0.41 0.28 0.27 0.30
0.20 0.17 0.15 0.14 0.14 0.13 0.11 0.09 0.10 0.12 0.15 0.21 0.36 0.45 0.25 0.13 0.00 0.00 0.00 0.00 0.00 0.00 0.00 0.00 0.00 0.00 0.01 0.00 0.00 0.00 0.00 0.00 0.01 0.00 0.00 0.00 0.18 0.02 0.11 0.14 0.34 0.96 0.32 0.18 0.21
0.19 0.19 0.20 0.18 0.17 0.17 0.15 0.12 0.10 0.12 0.17 0.28 0.56 0.76 0.59 0.16 0.00 0.00 0.00 0.00 0.00 0.00 0.00 0.00 0.00 0.00 0.00 0.00 0.00 0.00 0.00 0.00 0.05 0.05 0.02 0.03 0.07 0.02 0.16 0.35 0.45 0.38 0.16 0.07 0.06
0.23 0.22 0.22 0.23 0.22 0.20 0.19 0.17 0.18 0.17 0.24 0.37 0.68 0.87 0.63 0.04 0.00 0.00 0.00 0.00 0.00 0.00 0.00 0.00 0.00 0.00 0.00 0.00 0.00 0.00 0.00 0.00 0.06 0.08 0.02 0.02 0.13 0.26 0.35 0.16 0.35 0.50 0.14 0.14 0.08
0.45 0.38 0.33 0.33 0.32 0.31 0.33 0.33 0.29 0.33 0.53 0.86 1.12 1.12 0.51 0.02 0.00 0.00 0.02 0.03 0.02 0.01 0.00 0.00 0.01 0.01 0.00 0.01 0.00 0.00 0.01 0.05 0.07 0.02 0.00 0.01 0.01 0.05 0.26 0.30 0.40 0.31 0.18 0.27 0.36
0.50 0.60 0.56 0.53 0.56 0.52 0.45 0.44 0.47 0.71 0.95 1.67 2.11 1.90 0.58 0.02 0.02 0.07 0.11 0.12 0.08 0.14 0.09 0.01 0.04 0.05 0.02 0.02 0.02 0.05 0.06 0.04 0.02 0.02 0.00 0.00 0.00 0.01 0.02 0.16 0.11 0.10 0.27 0.77 0.89
0.65 0.66 0.77 0.85 0.93 0.93 0.89 1.02 1.13 1.19 1.16 1.13 1.32 1.16 0.37 0.15 0.18 0.16 0.23 0.59 0.41 0.27 0.39 0.14 0.24 0.31 0.09 0.04 0.02 0.01 0.01 0.01 0.01 0.00 0.01 0.00 0.00 0.00 0.00 0.04 0.05 0.21 0.47 1.09 0.49
0.70 0.86 0.94 1.06 1.47 1.70 1.70 1.39 0.73 0.43 0.54 0.22 0.20 0.40 0.32 0.26 0.46 0.19 0.27 1.04 1.40 0.94 0.42 0.37 0.49 0.31 0.16 0.11 0.06 0.04 0.02 0.01 0.00 0.00 0.00 0.00 0.00 0.00 0.00 0.01 0.04 0.22 0.42 0.33 0.55
0.83 0.90 1.13 1.57 1.90 2.27 1.86 0.96 0.26 0.42 1.27 0.54 0.06 0.05 0.06 0.25 0.49 0.22 0.29 0.79 1.20 1.05 0.49 0.53 0.46 0.20 0.18 0.21 0.20 0.10 0.06 0.02 0.00 0.00 0.00 0.00 0.00 0.00 0.01 0.05 0.18 0.27 0.14 0.04 0.10
0.85 1.01 1.45 2.19 3.08 1.95 1.61 0.55 0.40 1.25 3.54 1.68 0.20 0.04 0.01 0.19 0.61 0.15 0.28 0.59 0.99 0.92 0.49 0.51 0.29 0.15 0.26 0.32 0.27 0.22 0.03 0.01 0.01 0.04 0.07 0.02 0.05 0.02 0.04 0.20 0.11 0.02 0.01 0.02 0.02
1.02 1.15 1.69 2.20 1.92 1.46 0.78 0.46 1.21 3.31 6.34 1.72 0.11 0.02 0.01 0.08 0.23 0.10 0.15 0.51 0.73 0.58 0.85 1.20 0.29 0.13 0.15 0.26 0.18 0.27 0.02 0.01 0.03 0.05 0.08 0.05 0.10 0.04 0.00 0.00 0.01 0.02 0.09 0.18 0.12
1.32 1.48 1.80 2.17 2.54 1.43 0.72 1.01 3.26 6.76 5.91 1.05 0.04 0.07 0.09 0.07 0.06 0.07 0.29 0.68 0.78 0.80 1.00 1.11 0.35 0.27 0.27 0.06 0.06 0.21 0.13 0.10 0.13 0.26 0.35 0.07 0.10 0.06 0.11 0.10 0.06 0.09 0.05 0.03 0.05
2.04 2.04 1.87 1.59 2.06 1.64 1.67 2.83 6.55 7.20 2.34 0.49 0.08 0.09 0.12 0.11 0.12 0.08 0.39 0.88 1.30 1.72 1.38 0.76 0.46 0.30 0.28 0.26 0.11 0.31 0.79 1.17 0.93 0.84 0.73 0.16 0.17 0.22 0.30 0.21 0.15 0.13 0.03 0.05 0.19
2.88 2.88 2.51 2.07 1.66 2.24 3.70 5.82 7.31 3.21 1.05 0.18 0.02 0.02 0.15 0.28 0.36 0.32 0.54 1.01 0.98 1.14 1.03 0.66 0.49 0.35 0.38 0.50 0.29 0.40 0.85 1.90 1.64 0.58 0.27 0.07 0.12 0.48 0.26 0.19 0.16 0.15 0.09 0.16 0.30
3.59 3.80 3.77 3.39 2.43 3.03 5.02 8.14 4.87 1.42 0.48 0.22 0.07 0.13 0.12 0.24 0.55 0.64 0.65 0.92 1.26 1.33 1.68 1.19 0.69 0.22 0.21 0.15 0.21 0.56 1.12 0.93 1.31 0.69 0.49 0.09 0.20 0.46 0.08 0.04 0.07 0.10 0.13 0.28 0.31
3.72 4.00 3.50 2.81 3.43 5.00 6.89 5.73 2.48 0.61 0.15 0.13 0.30 0.32 0.17 0.13 0.38 0.66 1.14 1.14 0.84 1.03 1.57 1.41 1.03 0.22 0.21 0.36 0.73 1.13 1.12 1.60 2.86 2.80 1.44 0.26 0.16 0.28 0.09 0.05 0.05 0.11 0.21 0.56 0.48
4.48 4.89 2.86 2.77 5.88 9.00 8.41 3.96 1.29 0.28 0.12 0.26 0.32 0.37 0.22 0.29 0.33 0.61 1.08 1.08 0.69 0.65 0.91 1.68 1.93 0.59 0.67 1.18 1.16 1.84 2.24 2.72 3.14 2.30 1.72 0.90 0.32 0.24 0.17 0.16 0.17 0.32 0.47 0.56 0.86
5.68 5.41 2.65 3.47 7.24 8.23 5.19 2.03 0.75 0.16 0.08 0.21 0.26 0.43 0.36 0.22 0.31 0.54 0.88 0.74 0.40 0.41 0.62 1.20 2.04 0.87 0.46 0.85 0.64 0.75 1.43 2.04 3.64 2.82 1.67 1.30 0.75 0.30 0.33 0.42 0.54 0.74 0.92 0.91 0.96
6.89 4.85 4.60 5.17 6.32 4.21 2.17 1.26 0.67 0.28 0.20 0.29 0.36 0.36 0.49 0.28 0.52 0.29 0.39 0.22 0.12 0.32 0.75 0.93 1.98 1.86 0.82 1.10 1.50 1.76 1.88 2.05 2.48 2.30 1.72 1.83 1.04 0.57 0.53 0.60 0.73 1.23 1.30 1.21 1.18
7.52 7.72 8.16 8.78 4.27 2.02 1.82 1.68 1.18 0.44 0.31 0.31 0.43 0.38 0.46 0.69 0.68 0.46 0.24 0.25 0.12 0.18 0.42 1.15 1.81 1.67 1.66 1.39 1.63 1.81 1.39 1.49 2.14 2.74 1.61 0.94 0.54 0.45 0.49 0.66 0.89 1.63 1.72 1.68 1.42
9.61 5.95 3.77 5.49 4.31 2.02 1.40 1.46 1.02 0.80 0.49 0.42 0.55 0.40 0.59 0.79 0.68 0.75 0.59 0.27 0.22 0.21 0.32 1.04 1.97 1.37 0.94 0.44 0.40 0.61 0.82 0.86 1.48 1.31 1.35 0.40 0.28 0.35 0.62 0.96 1.13 1.27 1.54 1.55 1.57
9.05 4.21 2.20 1.19 0.95 1.78 1.90 1.68 0.90 0.66 0.74 0.76 0.76 0.41 0.45 0.86 0.82 0.77 0.90 1.04 0.63 0.51 0.75 1.18 1.60 0.85 0.68 0.30 0.37 0.58 0.74 0.78 0.81 0.65 0.47 0.24 0.21 0.36 0.62 0.92 1.00 1.38 1.37 2.28 1.68
5.76 1.91 2.79 2.34 1.51 2.48 2.03 1.11 0.72 0.51 0.59 0.37 0.50 0.64 0.62 0.53 0.55 0.68 0.68 1.00 1.39 1.17 1.06 1.29 1.76 1.68 1.29 0.37 0.82 1.75 0.79 0.71 1.36 0.77 0.77 1.06 0.87 0.71 0.94 1.02 1.19 1.88 2.98 2.50 1.67